Regional Weather Roundup
Issued by NWS

Home | Current Version | Previous Version | Text Only | Print | Product List | Glossary Off
Versions: 1 2 3 4 5 6 7 8 9 10 11 12 13 14 15 16 17 18 19 20 21 22 23 24 25 26 27 28 29 30 31 32 33 34 35 36 37 38 39 40 41 42 43 44 45 46 47 48 49 50

000
ASUS45 KBOU 281007
RWRCO

WEATHER ROUNDUP FOR COLORADO
NATIONAL WEATHER SERVICE DENVER/BOULDER CO
400 AM MDT FRI AUG 28 2015

NOTE: "FAIR" INDICATES FEW OR NO CLOUDS BELOW 12000 FEET WITH NO
SIGNIFICANT WEATHER AND/OR OBSTRUCTIONS TO VISIBILITY.

COZ001>005-013-030-031-281100-
...NORTHWEST COLORADO...

CITY           SKY/WX    TMP DP  RH WIND       PRES   REMARKS
CRAIG          CLEAR     47  45  93 CALM      30.33F
HAYDEN         NOT AVBL
MEEKER         CLEAR     52  48  86 VRB6      30.34F
MOUNT WERNER   NOT AVBL
STEAMBOAT SPGS CLEAR     46  45  97 CALM      30.36F
WALDEN         CLEAR     45  43  93 SE6       30.41F
$$

COZ006>008-011-281100-
...WEST CENTRAL VALLEYS...

CITY           SKY/WX    TMP DP  RH WIND       PRES   REMARKS
GRAND JUNCTION CLEAR     60  53  77 NE12      30.24R
MONTROSE       CLEAR     57  51  80 E6        30.31F
EAGLE          CLEAR     52  50  93 CALM      30.39R
RIFLE          CLEAR     53  50  89 E6        30.30F
DELTA          RAIN      59  54  83 NE7       30.28S
NUCLA          CLEAR     61  46  59 E9        30.32S
$$

COZ017>023-064>068-281100-
...SOUTHWEST COLORADO...

CITY           SKY/WX    TMP DP  RH WIND       PRES   REMARKS
DURANGO        CLEAR     54  47  77 N3        30.29R
CORTEZ         CLEAR     53  50  89 N5        30.26S
PAGOSA SPRINGS CLEAR     51  49  95 CALM      30.36F
TELLURIDE      PTCLDY    49  46  87 SE3       30.50F
WOLF CREEK PAS PTCLDY    39  37  93 N17       30.66S
$$

COZ009-010-012-014-032>034-037-058>063-281100-
...CENTRAL COLORADO...

CITY           SKY/WX    TMP DP  RH WIND       PRES   REMARKS
ASPEN          CLEAR     45  43  93 S3        30.42F
BUENA VISTA    PTCLDY    53  41  64 W10       30.39S
COPPER MTN     PTCLDY    45  37  76 W17       30.64S
BERTHOUD PASS  FAIR      34  23  64 NW28G36   30.63S WCI  20
COTTONWOOD PAS PTCLDY    54  37  54 W7        30.50S
GUNNISON       CLEAR     50  45  81 CALM      30.44R
KREMMLING      CLEAR     45  41  87 CALM      30.41S
LEADVILLE      PTCLDY    39  38  96 NE6       30.51S
MONARCH PASS     N/A     39  36  87 W16G25    30.74R FOG
SALIDA         PTCLDY    52  45  76 W8        30.45R
SUNLIGHT       CLEAR     46  41  81 NE5       30.61F
WILKERSON PASS PTCLDY    45  32  61 N7        30.60S
$$

COZ069>075-281100-
...SAN LUIS VALLEY/SANGRE DE CRISTO MOUNTAINS...

CITY           SKY/WX    TMP DP  RH WIND       PRES   REMARKS
ALAMOSA        PTCLDY    49  46  90 NW5       30.35S
LA VETA PASS   PTCLDY    46  43  87 W5        30.50S
SAGUACHE       CLEAR     54  45  71 N12       30.39R
$$

COZ035-036-038>040-281100-
...NORTHERN COLORADO FRONT RANGE...

CITY           SKY/WX    TMP DP  RH WIND       PRES   REMARKS
DENVER INTL AP PTCLDY    62  54  74 N3        30.18F
DMNS CITY PARK   N/A     63  54  73 SW2G8     30.19S
AURORA         LGT RAIN  62  56  83 N3        30.21R
FRONT RANGE AP NOT AVBL
ERIE MUNI ARPT PTCLDY    59  54  85 CALM      30.18S
BOULDER MUN AP PTCLDY    63  50  63 S5        30.20R
CENTENNIAL     MOCLDY    62  55  77 NW7       30.22S
BROOMFIELD     PTCLDY    59  52  77 W7        30.22S
FORT COLLINS   PTCLDY    61  52  72 N7        30.18S
LONGMONT       PTCLDY    62  52  71 E3        30.19S
$$

COZ041-046-047-076>085-087-088-281100-
...PIKES PEAK/PALMER DIVIDE AND SOUTHERN FOOTHILLS...

CITY           SKY/WX    TMP DP  RH WIND       PRES   REMARKS
COLO. SPRINGS  PTCLDY    57  49  74 N6        30.23R
A. F. ACADEMY  CLEAR     54  49  86 NW8       30.26R
ELLICOTT       CLEAR    N/A N/A N/A CALM      30.21S
FALCON         CLEAR     58  48  68 MISG      30.28S
FORT CARSON    PTCLDY    57  51  80 NW13      30.19S
LIMON          MOCLDY    57  54  89 NW6       30.17S
MONUMENT HILL  CLEAR     52  46  82 W7        30.29F
TRINIDAD       PTCLDY    60  55  83 W10       30.19F
$$

COZ042>045-048>051-090-091-281100-
...NORTHEAST COLORADO...

CITY           SKY/WX    TMP DP  RH WIND       PRES   REMARKS
GREELEY ARPT   PTCLDY    59  54  82 NW6       30.15F
AKRON          MOCLDY    60  57  89 W12       30.11F
BURLINGTON     CLEAR     58  54  86 W8        30.09S
WRAY           CLEAR     56  56 100 SW3       30.05S
STERLING       MOCLDY    61  55  82 S3        30.07F
HOLYOKE        CLEAR     63  55  77 NW8       30.04S
FORT MORGAN    MOCLDY    64  55  72 NW9       30.11F
$$

COZ086-089-092>099-281100-
...SOUTHEAST COLORADO...

CITY           SKY/WX    TMP DP  RH WIND       PRES   REMARKS
PUEBLO         CLEAR     62  58  86 W3        30.12S
LA JUNTA       CLEAR     62  58  86 NW8       30.10S
LAMAR          PTCLDY    64  59  83 W5        30.05S
SPRINGFIELD      N/A     63  58  83 NW8       30.09S
$$




USA.gov is the U.S. government's official web portal to all federal, state and local government web resources and services.